Location: Menands
(42.6920°N, 73.7246°W)
Time: 01:32:17
(UTC+00:00)

DNEPR-1 R/B - Pass Details

Date: 18 February 2026
Orbit: 585 x 1328 km, 64.6° (Epoch: 12 March)

Event Time Altitude Azimuth Distance (km) Brightness Sun altitude
Rises 23:03:26 0° 327° (NNW) 3,057 7.5 -6.7°
Reaches altitude 10° 23:05:36 10° 328° (NNW) 2,217 6.7 -7.1°
Maximum altitude 23:10:40 78° 56° (NE) 843 4.1 -8.0°
Drops below altitude 10° 23:16:50 10° 143° (SE) 2,682 6.5 -9.1°
Sets 23:19:40 0° 144° (SE) 3,750 7.3 -9.7°
